QPF
0.00 0.00 0.00 0.00 0.00 0.00 0.00 0.00 0.00 0.00 0.00 0.00 0.00 0.00 0.00 0.00 0.03 0.07 0.10 0.06 0.01 0.00 0.00 0.00 0.00 0.00 0.00 0.01 0.00 0.02 0.02 0.03 0.03 0.08 0.03 0.02 0.02 0.02 0.00 0.00 0.00 0.00 0.00
0.00 0.00 0.00 0.00 0.00 0.00 0.00 0.00 0.00 0.00 0.00 0.00 0.00 0.00 0.00 0.00 0.01 0.07 0.20 0.18 0.07 0.01 0.01 0.00 0.00 0.00 0.00 0.01 0.00 0.00 0.00 0.01 0.03 0.03 0.03 0.01 0.01 0.01 0.00 0.00 0.00 0.00 0.00
0.00 0.00 0.00 0.00 0.00 0.00 0.00 0.00 0.00 0.00 0.00 0.00 0.00 0.00 0.01 0.02 0.04 0.04 0.08 0.16 0.16 0.12 0.03 0.03 0.00 0.00 0.01 0.02 0.02 0.01 0.02 0.01 0.02 0.02 0.02 0.01 0.00 0.00 0.00 0.00 0.00 0.00 0.00
0.00 0.00 0.00 0.00 0.00 0.00 0.00 0.00 0.01 0.01 0.00 0.01 0.00 0.00 0.02 0.03 0.06 0.08 0.14 0.20 0.11 0.10 0.10 0.09 0.02 0.03 0.05 0.06 0.07 0.04 0.04 0.05 0.02 0.06 0.04 0.04 0.03 0.01 0.00 0.00 0.00 0.00 0.00
0.00 0.00 0.00 0.00 0.00 0.00 0.00 0.00 0.02 0.02 0.04 0.03 0.06 0.08 0.16 0.19 0.16 0.22 0.30 0.30 0.21 0.11 0.08 0.08 0.07 0.05 0.06 0.11 0.09 0.09 0.11 0.15 0.12 0.13 0.12 0.07 0.05 0.04 0.01 0.00 0.00 0.00 0.00
0.00 0.00 0.00 0.00 0.00 0.00 0.00 0.00 0.00 0.00 0.03 0.04 0.10 0.12 0.16 0.17 0.12 0.08 0.11 0.14 0.17 0.13 0.13 0.12 0.09 0.06 0.03 0.02 0.02 0.03 0.03 0.04 0.08 0.09 0.11 0.07 0.02 0.00 0.00 0.00 0.00 0.00 0.00
0.00 0.00 0.00 0.00 0.00 0.00 0.00 0.00 0.00 0.00 0.00 0.04 0.06 0.02 0.03 0.04 0.04 0.02 0.01 0.02 0.03 0.04 0.03 0.02 0.01 0.00 0.00 0.00 0.00 0.00 0.01 0.03 0.04 0.03 0.04 0.05 0.03 0.02 0.02 0.01 0.00 0.00 0.00
0.00 0.00 0.00 0.00 0.00 0.00 0.00 0.00 0.00 0.00 0.01 0.01 0.01 0.00 0.00 0.00 0.00 0.00 0.00 0.00 0.00 0.00 0.00 0.00 0.00 0.00 0.00 0.00 0.00 0.00 0.01 0.00 0.01 0.01 0.02 0.03 0.03 0.03 0.03 0.02 0.02 0.01 0.00
0.00 0.00 0.00 0.00 0.00 0.00 0.00 0.00 0.00 0.00 0.00 0.00 0.00 0.00 0.00 0.00 0.00 0.00 0.00 0.00 0.00 0.00 0.00 0.00 0.00 0.00 0.00 0.00 0.00 0.00 0.00 0.00 0.00 0.01 0.01 0.01 0.01 0.02 0.02 0.02 0.01 0.01 0.01
0.00 0.00 0.00 0.00 0.00 0.00 0.00 0.00 0.00 0.00 0.00 0.00 0.00 0.00 0.00 0.00 0.00 0.00 0.00 0.00 0.00 0.00 0.00 0.00 0.00 0.00 0.00 0.00 0.00 0.00 0.00 0.00 0.00 0.00 0.00 0.00 0.00 0.00 0.00 0.00 0.00 0.01 0.01
0.00 0.00 0.00 0.00 0.00 0.00 0.00 0.00 0.00 0.00 0.00 0.00 0.00 0.00 0.00 0.00 0.00 0.00 0.00 0.00 0.00 0.00 0.00 0.00 0.00 0.00 0.00 0.00 0.00 0.00 0.00 0.00 0.00 0.00 0.00 0.00 0.00 0.00 0.00 0.00 0.00 0.00 0.00
0.00 0.00 0.00 0.00 0.00 0.00 0.00 0.00 0.00 0.00 0.00 0.00 0.00 0.00 0.00 0.00 0.00 0.00 0.00 0.00 0.00 0.00 0.00 0.00 0.00 0.00 0.00 0.00 0.00 0.00 0.00 0.00 0.00 0.00 0.00 0.00 0.00 0.00 0.00 0.00 0.00 0.00 0.00
0.00 0.00 0.00 0.00 0.00 0.00 0.00 0.00 0.00 0.00 0.00 0.00 0.00 0.00 0.00 0.00 0.00 0.00 0.00 0.00 0.00 0.00 0.00 0.00 0.00 0.00 0.00 0.00 0.00 0.00 0.00 0.00 0.00 0.00 0.00 0.00 0.00 0.00 0.00 0.00 0.00 0.00 0.00
0.00 0.00 0.00 0.00 0.00 0.00 0.00 0.00 0.00 0.00 0.00 0.00 0.00 0.00 0.00 0.00 0.00 0.00 0.00 0.00 0.00 0.00 0.00 0.00 0.00 0.00 0.00 0.00 0.00 0.00 0.00 0.00 0.00 0.00 0.00 0.00 0.00 0.00 0.00 0.00 0.00 0.00 0.00
0.00 0.00 0.00 0.00 0.00 0.00 0.00 0.00 0.00 0.00 0.00 0.00 0.00 0.00 0.00 0.00 0.00 0.00 0.00 0.00 0.00 0.00 0.00 0.00 0.00 0.00 0.00 0.00 0.00 0.00 0.00 0.00 0.00 0.00 0.00 0.00 0.00 0.00 0.00 0.00 0.00 0.00 0.00
0.00 0.00 0.00 0.00 0.00 0.00 0.00 0.00 0.00 0.00 0.00 0.00 0.00 0.00 0.00 0.00 0.00 0.00 0.00 0.00 0.00 0.00 0.00 0.00 0.00 0.00 0.00 0.00 0.00 0.00 0.00 0.00 0.00 0.00 0.00 0.00 0.00 0.00 0.00 0.00 0.00 0.00 0.00
0.00 0.00 0.00 0.00 0.00 0.00 0.00 0.00 0.00 0.00 0.00 0.00 0.00 0.00 0.00 0.00 0.00 0.00 0.00 0.00 0.00 0.00 0.00 0.00 0.00 0.00 0.00 0.00 0.00 0.00 0.00 0.00 0.00 0.00 0.00 0.00 0.00 0.00 0.00 0.00 0.00 0.00 0.00
0.00 0.00 0.00 0.00 0.00 0.00 0.00 0.00 0.00 0.00 0.00 0.00 0.00 0.00 0.00 0.00 0.00 0.00 0.00 0.00 0.00 0.00 0.00 0.00 0.00 0.00 0.00 0.00 0.00 0.00 0.00 0.00 0.00 0.00 0.00 0.00 0.00 0.00 0.00 0.00 0.00 0.00 0.00
0.00 0.00 0.00 0.00 0.00 0.00 0.00 0.00 0.00 0.00 0.00 0.00 0.00 0.00 0.00 0.00 0.00 0.00 0.00 0.00 0.00 0.00 0.00 0.00 0.00 0.00 0.00 0.00 0.00 0.00 0.00 0.00 0.00 0.00 0.00 0.00 0.00 0.00 0.00 0.00 0.00 0.00 0.00
0.00 0.00 0.00 0.00 0.00 0.00 0.00 0.00 0.00 0.00 0.00 0.00 0.00 0.00 0.00 0.00 0.00 0.00 0.00 0.00 0.00 0.00 0.00 0.00 0.00 0.00 0.00 0.00 0.00 0.00 0.00 0.00 0.00 0.00 0.00 0.00 0.00 0.00 0.00 0.00 0.00 0.00 0.00
0.00 0.00 0.00 0.00 0.00 0.00 0.00 0.00 0.00 0.00 0.00 0.00 0.00 0.00 0.00 0.00 0.00 0.00 0.00 0.00 0.00 0.00 0.00 0.00 0.00 0.00 0.00 0.00 0.00 0.00 0.00 0.00 0.00 0.00 0.00 0.00 0.00 0.00 0.00 0.00 0.00 0.00 0.00
0.00 0.00 0.00 0.00 0.00 0.00 0.00 0.00 0.00 0.00 0.00 0.00 0.00 0.00 0.00 0.00 0.00 0.00 0.00 0.00 0.00 0.00 0.00 0.00 0.00 0.00 0.00 0.00 0.00 0.00 0.00 0.00 0.00 0.00 0.00 0.00 0.00 0.00 0.01 0.00 0.00 0.00 0.00
0.00 0.00 0.00 0.00 0.00 0.00 0.00 0.00 0.00 0.00 0.00 0.00 0.00 0.00 0.00 0.00 0.00 0.00 0.00 0.00 0.00 0.00 0.00 0.00 0.00 0.00 0.00 0.00 0.00 0.00 0.00 0.00 0.00 0.00 0.00 0.00 0.00 0.00 0.00 0.00 0.00 0.00 0.00
0.00 0.00 0.00 0.00 0.00 0.00 0.00 0.00 0.00 0.00 0.00 0.00 0.00 0.00 0.00 0.00 0.00 0.00 0.00 0.00 0.00 0.00 0.00 0.00 0.00 0.00 0.00 0.00 0.00 0.00 0.00 0.00 0.00 0.00 0.00 0.01 0.01 0.00 0.00 0.00 0.00 0.00 0.00
0.00 0.00 0.00 0.00 0.00 0.00 0.00 0.00 0.00 0.00 0.00 0.00 0.00 0.00 0.00 0.00 0.00 0.00 0.00 0.00 0.00 0.00 0.00 0.00 0.00 0.00 0.00 0.00 0.00 0.00 0.00 0.00 0.00 0.00 0.00 0.00 0.00 0.00 0.00 0.00 0.00 0.00 0.00
0.00 0.00 0.00 0.00 0.00 0.00 0.00 0.00 0.00 0.00 0.00 0.00 0.00 0.00 0.00 0.00 0.00 0.00 0.00 0.00 0.00 0.00 0.00 0.00 0.00 0.00 0.00 0.00 0.00 0.00 0.00 0.00 0.01 0.00 0.00 0.00 0.00 0.00 0.00 0.00 0.00 0.00 0.00
MSLP
1016.64 1016.75 1016.50 1016.59 1016.37 1015.95 1015.42 1014.86 1014.17 1013.41 1012.69 1012.61 1012.41 1012.21 1012.00 1011.41 1010.97 1010.78 1010.28 1010.55 1010.66 1010.70 1010.95 1011.27 1011.40 1011.50 1012.02 1012.36 1012.45 1012.72 1013.63 1013.36 1013.44 1013.92 1013.94 1013.97 1013.90 1014.10 1014.05 1013.79 1013.67 1013.34 1013.11
1017.29 1017.11 1017.10 1017.09 1016.71 1016.17 1015.74 1015.21 1014.44 1013.74 1012.90 1012.06 1011.84 1011.65 1011.62 1011.16 1010.93 1010.63 1010.33 1009.95 1010.14 1009.83 1010.32 1010.34 1010.75 1011.09 1011.63 1012.08 1012.44 1012.26 1012.73 1012.84 1013.07 1013.73 1013.88 1013.72 1013.67 1013.54 1013.47 1013.37 1013.18 1013.02 1012.85
1017.55 1017.38 1017.22 1016.90 1016.72 1016.46 1015.93 1015.39 1014.63 1013.57 1012.41 1011.71 1011.45 1011.41 1011.33 1011.10 1011.13 1010.55 1009.95 1009.90 1009.74 1009.33 1008.78 1009.61 1010.23 1010.64 1011.16 1011.50 1011.72 1011.93 1012.43 1012.57 1012.73 1013.23 1013.34 1013.22 1012.83 1012.84 1012.47 1012.44 1012.32 1012.26 1012.21
1018.01 1017.85 1017.68 1017.42 1017.41 1017.18 1016.67 1015.84 1014.93 1013.70 1012.43 1011.46 1011.29 1011.34 1011.44 1011.48 1011.28 1010.61 1009.42 1009.18 1009.08 1008.74 1008.66 1008.85 1009.74 1010.05 1010.51 1011.09 1011.46 1011.57 1011.89 1011.89 1012.62 1012.48 1012.52 1012.36 1012.30 1012.61 1012.50 1011.92 1011.79 1011.66 1011.69
1018.35 1018.41 1018.40 1018.10 1017.92 1017.64 1017.14 1016.21 1015.24 1014.14 1013.14 1011.95 1011.00 1011.30 1011.55 1011.73 1011.58 1011.47 1010.43 1009.90 1009.88 1009.99 1008.54 1008.94 1009.73 1010.21 1010.64 1011.07 1011.29 1011.61 1011.85 1012.08 1012.16 1011.98 1011.67 1011.88 1012.06 1012.30 1012.55 1011.98 1011.49 1011.23 1010.91
1018.66 1018.78 1018.74 1018.55 1018.44 1018.15 1017.43 1016.38 1015.55 1014.98 1013.98 1013.29 1012.74 1012.34 1012.45 1012.21 1011.95 1011.87 1011.54 1011.72 1011.69 1011.02 1009.33 1009.77 1010.57 1010.99 1011.25 1011.53 1011.79 1011.85 1011.94 1011.87 1011.68 1011.63 1011.64 1011.73 1011.73 1011.68 1011.81 1011.83 1011.43 1011.08 1010.44
1018.89 1018.98 1019.08 1018.99 1018.76 1018.49 1017.79 1016.88 1016.17 1015.63 1014.99 1014.42 1014.27 1013.80 1013.49 1013.40 1013.06 1012.44 1011.74 1012.50 1011.69 1011.78 1011.06 1011.34 1011.55 1011.85 1011.86 1012.08 1012.34 1012.25 1012.33 1012.59 1012.22 1011.76 1011.56 1011.26 1011.13 1011.17 1011.30 1011.13 1010.75 1010.48 1009.97
1019.09 1019.18 1019.29 1019.34 1019.21 1018.81 1018.23 1017.52 1016.74 1016.29 1015.84 1015.39 1014.93 1014.59 1014.08 1013.08 1014.69 1014.52 1013.82 1013.47 1014.26 1013.36 1012.85 1012.81 1012.68 1012.72 1012.43 1012.66 1012.72 1012.63 1012.82 1012.93 1012.73 1012.47 1012.29 1011.97 1011.41 1011.00 1010.56 1010.53 1010.40 1009.79 1009.55
1019.05 1019.23 1019.31 1019.43 1019.41 1019.04 1018.57 1018.07 1017.58 1017.00 1016.53 1015.94 1015.50 1015.21 1015.08 1015.29 1014.86 1014.36 1014.47 1015.08 1015.55 1014.73 1014.06 1013.37 1013.36 1012.99 1013.13 1013.24 1013.21 1013.08 1013.22 1012.97 1013.21 1012.67 1012.71 1012.75 1012.07 1011.76 1011.46 1011.03 1010.61 1009.27 1008.75
1018.92 1019.12 1019.17 1019.22 1019.14 1018.93 1018.67 1018.33 1017.98 1017.77 1017.31 1016.95 1016.38 1016.27 1016.10 1015.87 1015.54 1015.12 1015.13 1015.38 1015.29 1014.75 1014.24 1013.80 1013.46 1013.56 1013.71 1013.61 1013.61 1013.60 1013.49 1013.22 1013.48 1013.06 1013.06 1013.02 1012.61 1012.01 1011.51 1011.42 1011.32 1010.71 1010.21
1018.64 1018.75 1018.82 1018.85 1018.90 1018.81 1018.55 1018.24 1018.14 1018.02 1017.73 1017.38 1017.15 1016.90 1016.63 1016.29 1016.17 1016.22 1016.33 1016.21 1015.52 1014.94 1014.69 1014.42 1014.20 1014.22 1014.20 1014.22 1014.05 1014.02 1013.93 1013.61 1013.59 1013.34 1013.43 1012.95 1013.16 1012.20 1012.53 1012.02 1011.54 1010.92 1010.60
1018.13 1018.29 1018.38 1018.41 1018.42 1018.43 1018.42 1018.22 1017.86 1017.55 1017.47 1017.50 1017.42 1017.27 1017.17 1016.84 1016.58 1016.47 1016.25 1015.72 1015.17 1015.05 1014.95 1014.96 1014.92 1014.88 1015.06 1014.73 1014.55 1014.61 1014.37 1013.94 1013.87 1013.57 1013.30 1013.29 1013.18 1012.88 1012.66 1011.93 1011.92 1011.41 1010.83
1017.47 1017.67 1017.79 1017.82 1017.74 1017.75 1017.77 1017.71 1017.63 1017.56 1017.30 1017.16 1017.13 1017.14 1017.17 1017.23 1017.22 1017.10 1016.90 1016.68 1016.34 1015.93 1015.80 1015.89 1015.93 1015.47 1014.92 1014.74 1014.85 1014.97 1014.69 1014.37 1014.21 1013.77 1013.57 1013.34 1013.42 1013.12 1012.77 1012.26 1012.16 1011.79 1011.10
1016.49 1016.58 1016.64 1016.70 1016.84 1017.13 1017.31 1017.43 1017.52 1017.57 1017.58 1017.64 1017.73 1017.70 1017.58 1017.49 1017.44 1017.38 1017.25 1017.07 1016.91 1016.70 1016.45 1016.02 1015.67 1015.49 1015.42 1015.21 1015.19 1015.12 1014.96 1014.85 1014.49 1014.05 1013.85 1013.67 1013.74 1013.48 1012.83 1012.48 1012.41 1012.07 1011.66
1015.07 1015.29 1015.49 1015.73 1016.01 1016.50 1017.01 1017.29 1017.46 1017.58 1017.61 1017.77 1017.79 1017.84 1017.73 1017.65 1017.57 1017.42 1017.20 1016.93 1016.65 1016.41 1016.23 1016.08 1015.94 1015.79 1015.55 1015.20 1015.16 1015.19 1015.28 1014.86 1014.42 1014.12 1013.89 1013.79 1013.54 1013.11 1012.82 1012.60 1012.41 1012.17 1011.77
1013.71 1014.11 1014.62 1015.04 1015.60 1016.07 1016.58 1016.89 1017.21 1017.41 1017.53 1017.71 1017.84 1017.87 1017.89 1017.86 1017.77 1017.58 1017.38 1017.14 1016.96 1016.78 1016.61 1016.51 1016.34 1016.16 1015.92 1015.65 1015.37 1015.23 1015.06 1014.88 1014.53 1014.15 1013.87 1013.68 1013.32 1012.94 1012.80 1012.70 1012.70 1012.62 1012.14
1012.32 1012.81 1013.44 1014.03 1014.64 1015.27 1015.72 1016.44 1016.84 1017.10 1017.30 1017.45 1017.53 1017.57 1017.60 1017.73 1017.71 1017.63 1017.58 1017.53 1017.37 1017.12 1016.97 1016.77 1016.53 1016.32 1016.08 1015.70 1015.34 1015.14 1015.07 1014.92 1014.60 1014.22 1013.83 1013.43 1013.17 1013.01 1012.89 1013.03 1013.05 1012.77 1012.30
1011.62 1012.17 1012.68 1013.24 1013.91 1014.58 1015.38 1016.10 1016.58 1016.84 1017.05 1017.25 1017.38 1017.49 1017.56 1017.61 1017.54 1017.46 1017.44 1017.42 1017.31 1017.22 1017.06 1016.78 1016.47 1016.24 1015.95 1015.54 1015.21 1014.96 1014.87 1014.72 1014.39 1013.97 1013.51 1013.14 1012.79 1012.65 1012.59 1012.69 1012.73 1012.57 1012.24
1011.13 1011.45 1012.06 1012.96 1013.86 1014.66 1015.31 1015.96 1016.45 1016.71 1016.96 1017.18 1017.37 1017.54 1017.62 1017.69 1017.69 1017.63 1017.53 1017.29 1017.15 1017.00 1016.80 1016.53 1016.29 1016.09 1015.73 1015.30 1014.99 1014.79 1014.77 1014.63 1014.28 1013.77 1013.32 1012.95 1012.66 1012.40 1012.36 1012.48 1012.43 1012.23 1011.75
1011.22 1011.61 1012.15 1012.85 1013.82 1014.63 1015.29 1016.01 1016.52 1016.86 1017.10 1017.31 1017.48 1017.60 1017.71 1017.78 1017.79 1017.65 1017.52 1017.28 1017.05 1016.90 1016.66 1016.37 1016.06 1015.71 1015.33 1014.98 1014.67 1014.50 1014.48 1014.48 1014.24 1013.82 1013.43 1013.00 1012.47 1011.99 1011.91 1011.89 1011.90 1011.79 1011.38
1011.70 1012.23 1012.89 1013.72 1014.36 1014.94 1015.58 1016.32 1016.70 1017.09 1017.32 1017.44 1017.56 1017.62 1017.66 1017.70 1017.62 1017.55 1017.40 1017.23 1017.00 1016.72 1016.48 1016.32 1015.89 1015.52 1015.19 1014.82 1014.51 1014.28 1014.04 1013.87 1013.50 1013.24 1012.99 1012.68 1012.19 1011.73 1011.49 1011.31 1011.15 1011.05 1010.66
1012.34 1012.79 1013.48 1014.22 1014.78 1015.27 1015.85 1016.40 1016.67 1016.92 1017.19 1017.52 1017.69 1017.81 1017.72 1017.63 1017.45 1017.41 1017.22 1017.12 1017.02 1016.81 1016.60 1016.26 1015.94 1015.62 1015.23 1014.94 1014.63 1014.25 1013.83 1013.46 1013.22 1012.93 1012.54 1012.18 1011.78 1011.34 1010.99 1010.74 1010.51 1010.20 1009.94
1012.70 1013.16 1013.71 1014.38 1014.88 1015.34 1015.84 1016.41 1016.69 1016.96 1017.27 1017.53 1017.71 1017.79 1017.71 1017.60 1017.42 1017.39 1017.26 1017.12 1017.00 1016.86 1016.62 1016.34 1016.04 1015.62 1015.28 1014.98 1014.66 1014.12 1013.65 1013.37 1013.01 1012.63 1012.19 1011.69 1011.24 1010.82 1010.51 1010.26 1009.85 1009.47 1009.68
1012.65 1013.23 1013.88 1014.49 1015.09 1015.48 1015.93 1016.31 1016.69 1016.95 1017.27 1017.46 1017.59 1017.61 1017.62 1017.47 1017.26 1017.11 1017.06 1017.03 1016.83 1016.69 1016.51 1016.22 1016.01 1015.59 1015.14 1014.78 1014.32 1013.89 1013.47 1013.00 1012.58 1012.17 1011.76 1011.35 1010.97 1010.56 1010.09 1009.57 1009.30 1009.15 1009.12
1012.66 1013.34 1013.94 1014.55 1015.10 1015.44 1015.90 1016.21 1016.46 1016.75 1017.11 1017.22 1017.31 1017.36 1017.36 1017.39 1017.32 1017.11 1016.92 1016.75 1016.49 1016.34 1016.02 1015.85 1015.70 1015.29 1014.80 1014.44 1013.91 1013.39 1012.95 1012.48 1011.97 1011.29 1011.00 1010.73 1010.42 1010.04 1009.65 1009.26 1008.99 1008.70 1008.55
1012.73 1013.47 1013.98 1014.48 1014.91 1015.36 1015.83 1016.15 1016.31 1016.66 1017.00 1017.24 1017.29 1017.26 1017.18 1017.15 1017.09 1016.95 1016.65 1016.49 1016.17 1015.87 1015.66 1015.47 1015.18 1014.70 1014.31 1013.84 1013.40 1012.98 1012.46 1011.91 1011.37 1010.80 1010.53 1010.27 1010.03 1009.68 1009.35 1008.98 1008.70 1008.57 1008.48
Thickness
5598 5594 5592 5586 5583 5581 5581 5582 5582 5582 5583 5580 5579 5579 5579 5587 5600 5606 5614 5620 5621 5627 5631 5634 5639 5644 5643 5643 5648 5646 5640 5642 5644 5640 5643 5644 5647 5647 5651 5655 5656 5659 5662
5583 5582 5576 5568 5565 5563 5560 5558 5560 5560 5562 5562 5561 5560 5559 5566 5573 5580 5592 5605 5609 5616 5621 5627 5630 5632 5633 5633 5635 5639 5633 5636 5636 5629 5628 5632 5637 5642 5644 5646 5649 5652 5654
5575 5572 5565 5559 5551 5545 5543 5542 5541 5544 5547 5545 5543 5541 5542 5547 5549 5562 5573 5587 5596 5612 5625 5621 5617 5619 5622 5624 5625 5626 5625 5626 5626 5623 5621 5621 5628 5633 5638 5641 5646 5648 5648
5565 5563 5554 5546 5534 5528 5526 5525 5526 5529 5530 5527 5521 5518 5517 5518 5523 5541 5563 5579 5588 5605 5608 5607 5603 5610 5612 5613 5613 5616 5619 5622 5616 5619 5621 5625 5626 5621 5622 5633 5638 5640 5641
5555 5549 5540 5533 5522 5515 5511 5513 5512 5512 5507 5508 5512 5507 5501 5496 5504 5517 5543 5559 5567 5580 5598 5602 5597 5599 5600 5601 5603 5604 5606 5607 5611 5611 5615 5615 5617 5615 5613 5620 5627 5631 5636
5548 5541 5531 5522 5509 5503 5503 5507 5507 5500 5494 5491 5492 5492 5489 5492 5500 5510 5527 5535 5547 5558 5575 5577 5577 5578 5579 5583 5585 5589 5592 5596 5601 5604 5603 5603 5604 5608 5608 5608 5615 5618 5628
5542 5533 5522 5512 5503 5497 5497 5502 5501 5497 5492 5487 5483 5483 5486 5487 5495 5508 5522 5524 5537 5537 5549 5555 5558 5560 5563 5567 5567 5572 5576 5575 5581 5588 5591 5593 5599 5599 5600 5603 5609 5610 5618
5534 5527 5517 5507 5498 5493 5492 5493 5498 5493 5491 5487 5486 5485 5487 5498 5488 5495 5506 5513 5508 5522 5531 5536 5542 5544 5550 5550 5552 5555 5556 5559 5563 5568 5570 5574 5582 5586 5594 5597 5599 5605 5606
5528 5521 5514 5504 5496 5492 5489 5489 5489 5489 5488 5488 5488 5489 5489 5486 5489 5497 5501 5498 5495 5506 5516 5526 5528 5534 5534 5535 5538 5541 5541 5546 5546 5552 5553 5555 5562 5566 5572 5578 5584 5594 5597
5525 5519 5513 5506 5500 5494 5489 5487 5486 5484 5484 5483 5485 5483 5483 5487 5489 5495 5497 5496 5497 5504 5510 5515 5522 5521 5519 5522 5523 5524 5526 5530 5531 5537 5538 5539 5546 5552 5559 5562 5563 5566 5570
5525 5519 5513 5508 5501 5496 5492 5489 5484 5481 5480 5480 5480 5481 5482 5484 5485 5485 5484 5486 5494 5500 5503 5505 5507 5507 5507 5506 5508 5509 5511 5515 5519 5522 5522 5527 5527 5536 5535 5540 5545 5551 5552
5526 5520 5514 5508 5504 5498 5493 5490 5489 5487 5484 5479 5477 5476 5475 5477 5480 5481 5483 5488 5493 5494 5494 5491 5491 5491 5488 5492 5495 5493 5497 5503 5505 5509 5512 5513 5515 5518 5520 5528 5529 5534 5538
5525 5519 5513 5508 5505 5501 5496 5493 5490 5488 5486 5484 5482 5479 5476 5474 5473 5474 5475 5475 5477 5479 5478 5475 5473 5477 5482 5485 5483 5482 5485 5488 5491 5495 5497 5501 5500 5503 5507 5512 5513 5517 5522
5531 5526 5522 5516 5510 5505 5499 5494 5489 5485 5481 5478 5475 5473 5472 5471 5470 5468 5468 5468 5467 5467 5469 5471 5472 5472 5471 5472 5471 5472 5473 5474 5477 5482 5484 5485 5485 5487 5494 5497 5498 5502 5505
5540 5534 5528 5522 5515 5506 5498 5491 5486 5482 5478 5475 5473 5470 5469 5468 5466 5466 5466 5466 5466 5466 5465 5464 5462 5461 5461 5463 5461 5460 5459 5461 5465 5467 5469 5470 5471 5476 5479 5482 5484 5487 5489
5546 5539 5532 5523 5515 5506 5498 5491 5486 5480 5476 5472 5468 5465 5463 5461 5460 5459 5458 5457 5456 5455 5453 5452 5451 5449 5450 5451 5452 5452 5451 5452 5454 5457 5457 5459 5462 5465 5467 5468 5468 5469 5472
5553 5545 5536 5527 5517 5509 5500 5490 5483 5478 5473 5469 5466 5462 5459 5456 5453 5451 5448 5446 5445 5444 5442 5441 5440 5439 5438 5440 5442 5442 5441 5441 5441 5444 5446 5448 5449 5449 5451 5450 5449 5453 5457
5552 5546 5536 5528 5519 5509 5498 5488 5481 5476 5470 5465 5461 5457 5452 5449 5446 5444 5441 5437 5435 5432 5430 5430 5430 5429 5428 5429 5430 5431 5429 5429 5430 5431 5433 5435 5436 5435 5436 5435 5434 5436 5438
5550 5542 5533 5523 5511 5501 5492 5485 5477 5471 5465 5460 5453 5448 5444 5439 5436 5432 5429 5427 5425 5422 5420 5419 5417 5415 5414 5416 5416 5415 5411 5410 5411 5414 5415 5417 5418 5420 5419 5416 5416 5418 5421
5540 5533 5524 5514 5502 5492 5483 5474 5468 5461 5456 5449 5444 5439 5434 5428 5423 5419 5416 5414 5413 5410 5407 5405 5403 5402 5401 5401 5401 5400 5398 5395 5396 5396 5396 5397 5399 5402 5402 5400 5396 5396 5399
5531 5521 5510 5499 5491 5481 5473 5464 5457 5450 5442 5437 5432 5426 5421 5415 5411 5407 5403 5401 5398 5395 5392 5389 5387 5385 5384 5382 5382 5381 5380 5378 5379 5377 5377 5376 5378 5379 5379 5379 5380 5379 5382
5520 5512 5501 5491 5481 5474 5465 5457 5451 5442 5434 5426 5418 5412 5407 5402 5398 5392 5388 5383 5380 5377 5374 5372 5369 5366 5364 5362 5360 5359 5358 5357 5356 5355 5355 5354 5354 5353 5353 5353 5354 5355 5357
5511 5505 5496 5484 5476 5468 5459 5451 5441 5433 5425 5416 5407 5400 5393 5386 5381 5376 5371 5366 5363 5359 5356 5353 5350 5348 5345 5341 5340 5339 5339 5336 5334 5331 5331 5331 5330 5329 5329 5327 5329 5331 5326
5506 5498 5489 5478 5468 5459 5451 5443 5433 5423 5414 5405 5396 5388 5379 5373 5368 5363 5358 5352 5346 5341 5339 5336 5332 5329 5328 5325 5324 5322 5320 5319 5316 5314 5312 5309 5306 5305 5306 5307 5304 5301 5300
5501 5491 5482 5472 5462 5453 5443 5434 5425 5415 5405 5395 5385 5375 5367 5360 5354 5349 5343 5339 5334 5331 5327 5322 5319 5317 5316 5314 5313 5311 5308 5304 5301 5302 5296 5290 5285 5283 5281 5280 5278 5275 5274
5492 5482 5474 5465 5455 5445 5435 5426 5417 5406 5395 5383 5373 5364 5357 5350 5345 5339 5333 5329 5326 5322 5318 5313 5310 5309 5306 5304 5301 5298 5294 5290 5284 5281 5273 5267 5259 5255 5252 5251 5248 5245 5244